Mathews, Virginia, United States (23109)
Lat: 37.44N, Lon: 76.32W
Wx Zone: VAZ086
Local Info
Past Weather Observations for Today

NOTE: This archive is for the closest National Weather Service station to Mathews. Information may differ from the station used for current weather conditions.

Click here for Long-term Archive

Time Weather Temperature Dewpoint Humidity Pressure Winds Precip Visibility
13:54
Overcast
Light Rain
77°F / 25°C 63°F / 17°C 61% 29.89 in
(1012 mb)
SE 3.5 mph
(SE 6 kph)
0.00 in
(0.00 mm)
10SM
13:46
Overcast
Light Rain
75°F / 24°C 63°F / 17°C 65% 29.89 in
(1012 mb)
Calm 0.00 in
(0.00 mm)
10SM
13:22
Mostly Cloudy
75°F / 24°C 63°F / 17°C 65% 29.89 in
(1012 mb)
Calm - 10SM
12:54
Partly Cloudy
75°F / 24°C 64°F / 18°C 69% 29.89 in
(1012 mb)
SSE 3.5 mph
(SSE 6 kph)
- 10SM
11:54
Mostly Cloudy
77°F / 25°C 61°F / 16°C 57% 29.92 in
(1013 mb)
ENE 8.1 mph
(ENE 13 kph)
- 10SM
11:47
Mostly Cloudy
77°F / 25°C 61°F / 16°C 57% 29.92 in
(1013 mb)
E 4.6 mph
(E 7 kph)
- 10SM
10:54
Partly Cloudy
77°F / 25°C 64°F / 18°C 65% 29.92 in
(1013 mb)
Calm 0.00 in
(0.00 mm)
10SM
10:40
Partly Cloudy
73°F / 23°C 63°F / 17°C 69% 29.92 in
(1013 mb)
Calm 0.00 in
(0.00 mm)
10SM
09:54
Mostly Cloudy
73°F / 23°C 64°F / 18°C 74% 29.95 in
(1014 mb)
Calm - 10SM
08:54
Overcast
72°F / 22°C 64°F / 18°C 78% 29.95 in
(1014 mb)
Calm - 8SM
07:54
Overcast
Fog And Mist
68°F / 20°C 64°F / 18°C 88% 29.95 in
(1014 mb)
N 5.8 mph
(N 9 kph)
- 4SM
07:52
Overcast
Fog And Mist
68°F / 20°C 64°F / 18°C 88% 29.95 in
(1014 mb)
NNW 4.6 mph
(NNW 7 kph)
- 4SM
07:37
Mostly Cloudy
Fog And Mist
68°F / 20°C 64°F / 18°C 88% 29.95 in
(1014 mb)
NNW 4.6 mph
(NNW 7 kph)
- 6SM
06:54
Partly Cloudy
64°F / 18°C 61°F / 16°C 88% 29.95 in
(1014 mb)
Calm 0.00 in
(0.00 mm)
7SM
05:54
Partly Cloudy
63°F / 17°C 59°F / 15°C 88% 29.92 in
(1013 mb)
Calm - 7SM
05:14
Partly Cloudy
63°F / 17°C 59°F / 15°C 88% 29.92 in
(1013 mb)
E 3.5 mph
(E 6 kph)
- 7SM
05:06
Partly Cloudy
64°F / 18°C 61°F / 16°C 88% 29.92 in
(1013 mb)
Calm - 7SM
04:59
Partly Cloudy
Fog And Mist
64°F / 18°C 61°F / 16°C 88% 29.92 in
(1013 mb)
Calm - 1 1/2SM
04:54
Partly Cloudy
64°F / 18°C 61°F / 16°C 88% 29.92 in
(1013 mb)
Calm - 7SM
04:09
Mostly Cloudy
Fog And Mist
63°F / 17°C 59°F / 15°C 88% 29.92 in
(1013 mb)
Calm - 3SM
04:00
Mostly Cloudy
Fog And Mist
64°F / 18°C 61°F / 16°C 88% 29.92 in
(1013 mb)
Calm - 1 3/4SM
03:54
Mostly Cloudy
Fog And Mist
64°F / 18°C 61°F / 16°C 88% 29.92 in
(1013 mb)
Calm - 6SM
03:46
Mostly Cloudy
Fog And Mist
64°F / 18°C 61°F / 16°C 88% 29.92 in
(1013 mb)
Calm - 2SM
03:11
Mostly Cloudy
Hazy
64°F / 18°C 59°F / 15°C 83% 29.92 in
(1013 mb)
E 3.5 mph
(E 6 kph)
- 1/2SM
03:06
Mostly Cloudy
Fog
63°F / 17°C 59°F / 15°C 88% 29.92 in
(1013 mb)
Calm - 1/4SM
03:01
Mostly Cloudy
Fog
63°F / 17°C 61°F / 16°C 94% 29.92 in
(1013 mb)
Calm - 1/4SM
02:54
Mostly Cloudy
Fog
64°F / 18°C 61°F / 16°C 88% 29.92 in
(1013 mb)
Calm - 1/2SM
02:35
Mostly Cloudy
Fog
64°F / 18°C 61°F / 16°C 88% 29.92 in
(1013 mb)
Calm - 1/2SM
02:28
Partly Cloudy
Fog And Mist
64°F / 18°C 61°F / 16°C 88% 29.92 in
(1013 mb)
SSE 3.5 mph
(SSE 6 kph)
- 1SM
02:24
Mostly Cloudy
Fog And Mist
66°F / 19°C 63°F / 17°C 88% 29.92 in
(1013 mb)
Calm - 2SM
02:10
Partly Cloudy
Fog And Mist
66°F / 19°C 63°F / 17°C 88% 29.92 in
(1013 mb)
Calm - 3/4SM
01:54
Mostly Cloudy
Fog And Mist
66°F / 19°C 63°F / 17°C 88% 29.95 in
(1014 mb)
Calm - 2 1/2SM
00:54
Mostly Cloudy
68°F / 20°C 63°F / 17°C 83% 29.95 in
(1014 mb)
Calm 0.00 in
(0.00 mm)
10SM
Time Weather Temperature Dewpoint Humidity Pressure Winds Precip Visibility


Weather for websites

WeatherForYou.com, LLC is not responsible for any damages or problems caused by this service. Current weather conditions are obtained from the closest station including government and personal stations which may have varying degrees of accuracy. Weather forecasts are derived from the NOAA NDFD. Like all things, this site belongs to Jesus Christ... He just trusts me to maintain it. If you have any questions or comments email webmaster@weatherforyou.com

Copyright © 2014, WeatherForYou.com LLC. All rights reserved.